Hanscom AFB, MA

2:44 PM EST on January 23, 2017 (GMT -0500)
Hanscom

Weather History for KBED - December, 2012

Change the Weather History Date:

Monday, December 24, 2012

  Actual Average Record
Temperature  
Mean Temperature 32 °F -  
Max Temperature 39 °F 36 °F 69 °F (2015)
Min Temperature 25 °F 17 °F -10 °F (1989)
Degree Days  
Heating Degree Days 33    
Moisture  
Dew Point 19 °F    
Average Humidity 63    
Maximum Humidity 85    
Minimum Humidity 38    
Precipitation  
Precipitation 0.00 in - - ()
Sea Level Pressure  
Sea Level Pressure 30.04 in    
Wind  
Wind Speed 5 mph (WSW)    
Max Wind Speed 14 mph    
Max Gust Speed -    
Visibility 10 miles    
Events      
Averages and records for this station are not official NWS values.
T = Trace of Precipitation, MM = Missing Value Source: NWS Daily Summary

Daily Weather History Graph

Daily Weather History Graph

Search for Another Location

Airport or City:

Trip Planner

Search our weather history database for the weather conditions in past years. The results will help you decide how hot, cold, wet, or windy it might be!

Date:

Astronomy

Dec. 24, 2012 Rise Set
Actual Time 7:12 AM EST 4:17 PM EST
Civil Twilight 6:40 AM EST 4:49 PM EST
Nautical Twilight 6:05 AM EST 5:24 PM EST
Astronomical Twilight 5:31 AM EST 5:59 PM EST
Moon 1:44 PM EST (12/24) 3:46 AM EST (12/24)
Length of Visible Light 10h 08m
Length of Day
9h 04m
Waxing Gibbous, 88% of the Moon is Illuminated
Dec 24
Waxing Gibbous
Dec 28
Full
Jan 4
Last Quarter
Jan 11
New
Jan 18
First Quarter

Hourly Weather History & Observations

Time (EST) Temp. Windchill Dew Point Humidity Pressure Visibility Wind Dir Wind Speed Gust Speed Precip Events Conditions
12:56 AM 30.0 °F 24.1 °F 19.9 °F 66% 29.91 in 10.0 mi SW 5.8 mph - N/A   Clear
1:56 AM 30.0 °F 23.2 °F 19.9 °F 66% 29.93 in 10.0 mi SW 6.9 mph - N/A   Partly Cloudy
2:56 AM 28.9 °F 21.1 °F 19.0 °F 67% 29.94 in 10.0 mi SW 8.1 mph - N/A   Clear
3:56 AM 28.9 °F 21.9 °F 19.0 °F 67% 29.94 in 10.0 mi SW 6.9 mph - N/A   Clear
4:56 AM 30.0 °F 24.1 °F 19.0 °F 64% 29.96 in 10.0 mi WSW 5.8 mph - N/A   Clear
5:56 AM 30.0 °F 22.4 °F 19.9 °F 66% 29.99 in 10.0 mi West 8.1 mph - N/A   Clear
6:56 AM 28.9 °F 21.9 °F 19.0 °F 67% 30.03 in 10.0 mi West 6.9 mph - N/A   Clear
7:56 AM 30.0 °F 24.1 °F 19.0 °F 64% 30.05 in 10.0 mi WSW 5.8 mph - N/A   Clear
8:56 AM 34.0 °F 28.0 °F 19.0 °F 54% 30.09 in 10.0 mi West 6.9 mph - N/A   Clear
9:56 AM 36.0 °F 31.1 °F 19.0 °F 50% 30.08 in 10.0 mi WNW 5.8 mph - N/A   Clear
10:56 AM 37.0 °F 28.5 °F 18.0 °F 46% 30.08 in 10.0 mi WNW 13.8 mph - N/A   Clear
11:56 AM 37.9 °F 31.5 °F 18.0 °F 45% 30.06 in 10.0 mi WNW 9.2 mph - N/A   Clear
12:56 PM 39.0 °F 33.4 °F 17.1 °F 41% 30.04 in 10.0 mi West 8.1 mph - N/A   Clear
1:56 PM 39.0 °F 34.0 °F 15.1 °F 38% 30.07 in 10.0 mi WSW 6.9 mph - N/A   Clear
2:56 PM 37.0 °F - 15.1 °F 41% 30.09 in 10.0 mi Calm Calm - N/A   Clear
3:56 PM 36.0 °F - 15.1 °F 43% 30.08 in 10.0 mi Calm Calm - N/A   Clear
4:56 PM 30.9 °F - 18.0 °F 59% 30.09 in 10.0 mi Calm Calm - N/A   Scattered Clouds
5:56 PM 27.0 °F - 19.9 °F 75% 30.08 in 10.0 mi Calm Calm - N/A   Clear
6:56 PM 25.0 °F - 21.0 °F 85% 30.10 in 10.0 mi Calm Calm - N/A   Clear
7:56 PM 25.0 °F - 21.0 °F 85% 30.09 in 10.0 mi Calm Calm - N/A   Clear
8:56 PM 26.1 °F - 21.0 °F 81% 30.10 in 10.0 mi Calm Calm - N/A   Clear
9:56 PM 26.1 °F - 21.0 °F 81% 30.08 in 10.0 mi Calm Calm - N/A   Clear
10:56 PM 27.0 °F - 21.9 °F 81% 30.07 in 10.0 mi Calm Calm - N/A   Clear
11:56 PM 28.0 °F - 23.0 °F 81% 30.06 in 10.0 mi Calm Calm - N/A   Overcast